Location: Unspecified
(0.0000°N, 0.0000°E)
Time: 14:42:31
(UTC+00:00)

Envisat - Pass Details

Date: 20 May 2022
Orbit: 764 x 765 km, 98.2° (Epoch: 19 May)

Event Time Altitude Azimuth Distance (km) Brightness Sun altitude
Rises 03:44:19 0° 26° (NNE) 3,213 6.9 -30.8°
Reaches altitude 10° 03:46:44 10° 33° (NNE) 2,291 6.1 -30.3°
Maximum altitude 03:51:26 40° 102° (ESE) 1,117 4.1 -29.2°
Enters shadow 03:53:24 28° 148° (SSE) 1,398 4.4 -28.8°
